Regional Weather Roundup
Issued by NWS Goodland, KS

Home | Current Version | Previous Version | Graphics & Text | Print | Product List | Glossary On
Versions: 1 2 3 4 5 6 7 8 9 10 11 12 13 14 15 16 17 18 19 20 21 22 23 24 25 26 27 28 29 30 31 32 33 34 35 36 37 38 39 40 41 42 43 44 45 46 47 48 49 50
000
ASUS43 KGLD 211608
RWRGLD

GOODLAND FORECAST AREA HOURLY WEATHER ROUNDUP
NATIONAL WEATHER SERVICE GOODLAND KS
900 AM MST TUE FEB 21 2017

...OFFICIAL OBSERVATIONS...

CITY           SKY/WX    TMP DP  RH WIND       PRES   REMARKS
GOODLAND KS    SUNNY     54  19  25 NW3       30.03R
HILL CITY KS   SUNNY     55  30  38 SW8       30.04S
IMPERIAL NEB   SUNNY     60  26  27 NW7       29.99R
MCCOOK NEB     SUNNY     50  25  37 SW10      29.99F
AKRON CO       SUNNY     59  25  27 W21       30.04R
BURLINGTON CO  SUNNY     62  25  24 NW18      30.04R
LIMON CO       SUNNY     54  21  27 CALM      30.09F
$$

...UNOFFICIAL OBSERVATIONS...

CITY           SKY/WX    TMP DP  RH WIND       PRES   REMARKS
LENORA KS        N/A     56  32  40 SW12        N/A
NORTON KS      SUNNY     55  19  24 SW15      30.01
SHARON SPRINGS   N/A     53  25  33 CALM        N/A
TRENTON NEB      N/A     51  32  48 CALM        N/A
KIT CARSON CO    N/A     63  29  28 MISG        N/A
YUMA CO        FAIR      61  28  29 W17G24    30.02R
$$




USA.gov is the U.S. government's official web portal to all federal, state and local government web resources and services.